Other Public Products
Issued by NWS Grand Forks, ND

Home | Current Version | Previous Version | Text Only | Print | Product List | Glossary Off
Versions: 1 2 3 4 5 6 7 8 9 10 11 12 13 14 15 16 17 18 19 20 21 22 23 24 25 26 27 28 29 30 31 32 33 34 35 36 37 38 39 40 41 42 43 44 45 46 47 48 49 50

000
FPUS83 KFGF 161731
OPUFGF
PRAIRIE TO PINES WEATHER ROUNDUP
NATIONAL WEATHER SERVICE EASTERN NORTH DAKOTA/GRAND FORKS ND
1200 PM CDT MON OCT 16 2017

 **SATELLITE DATA USED TO AUGMENT SKY COVER AT AUTOMATED STATIONS**
 *****  WEATHER ACROSS EASTERN NORTH DAKOTA  *****

CITY           SKY/WX    TMP DP  RH WIND       PRES   REMARKS
GRAND FORKS    FAIR      63  36  36 SW17G29   29.88F
GRAND FORKS AF FAIR      63  33  33 SW23      29.88F
GRAND CITY NWS NOT AVBL
BUXTON           N/A     63  36  36 SW20G32     N/A
DEVILS LAKE    FAIR      58  35  42 W21       29.88F
FARGO          FAIR      58  39  49 S17       29.99F
WAHPETON ARPT  NOT AVBL
$$

 *****  WEATHER ACROSS CENTRAL AND WESTERN NORTH DAKOTA  *****

CITY           SKY/WX    TMP DP  RH WIND       PRES   REMARKS
JAMESTOWN      FAIR      64  33  31 SW20G31   29.94F
BISMARCK       FAIR      65  34  31 W13       29.97F
MINOT          FAIR      62  35  36 W17G29    29.88S
MINOT AFB      FAIR      61  35  38 W17G25    29.86S
GARRISON         N/A     61  35  37 W22       29.93S
WILLISTON      FAIR      59  36  42 W21G31    29.93F
DICKINSON      FAIR      61  32  33 W17       29.99S
HETTINGER      FAIR      60  31  33 W16       30.06S
$$

 *****  OTHER OBSERVATIONS NORTHEAST NORTH DAKOTA  *****

CITY           SKY/WX    TMP DP  RH WIND       PRES   REMARKS
WALHALLA       FAIR     N/A N/A N/A W12G20    29.82R
LANGDON        FAIR      57  36  44 SW20      29.84F
CAVALIER       FAIR      61  37  41 SW13G20   29.82F
GRAFTON        FAIR      61  36  39 SW15G23   29.87F
CANDO          FAIR      59  34  38 W17G24    29.87S
FORT TOTTEN      N/A     59  33  38 SW9       29.95
ROLLA          FAIR      57  34  41 W14G21    29.84S
RUGBY          FAIR      59  36  41 W14       29.87S
 ***** THE ABOVE OBSERVATIONS ARE NON NWS ARE NOT QUALITY
        CONTROLLED AND MAY MIS-REPORT RAIN FOR SNOW...
$$

 *****  OTHER OBSERVATIONS SOUTHEAST NORTH DAKOTA *****

CITY           SKY/WX    TMP DP  RH WIND       PRES   REMARKS
COOPERSTOWN    FAIR      64  34  32 SW21G29   29.91F
VALLEY CITY    FAIR      59  36  41 SW18G26   29.97F
OAKES          NOT AVBL
GWINNER        SUNNY     61  37  41 SW16G24   30.01F
SHEYENNE NWR     N/A     60  37  42 SW17      29.95
BUFFALO          N/A     62  30  30 SW17        N/A
WYNDMERE       NOT AVBL
 ***** THE ABOVE OBSERVATIONS ARE NON NWS ARE NOT QUALITY
       CONTROLLED AND MAY MIS-REPORT RAIN FOR SNOW...
$$

  *****  WEATHER ACROSS NORTHERN MINNESOTA  *****

CITY           SKY/WX    TMP DP  RH WIND       PRES   REMARKS
FLAG ISLAND    FAIR      54  36  50 S13G23    29.86F
WARROAD        FAIR      55  37  50 S12G20    29.88F
ROSEAU           N/A     57  39  51 S20       29.86F
HALLOCK        FAIR      57  36  44 S21       29.84F
THF RVR FALLS  FAIR      57  33  40 SW22G28   29.93F
HALSTAD          N/A     60  36  40 SW22        N/A
FOSSTON        FAIR      57  32  38 S23       29.97F
BAUDETTE       FAIR      55  34  45 S14G23    29.93F
WASKISH        FAIR      57  34  41 SW14G23   29.98S
CROOKSTON      FAIR      59  36  41 SW23      29.91F
$$
  *****  WEATHER ACROSS CENTRAL AND WEST MINNESOTA  *****

CITY           SKY/WX    TMP DP  RH WIND       PRES   REMARKS
BEMIDJI        FAIR      56  34  42 SW13G24   30.00F
PARK RAPIDS    FAIR      56  37  49 SW14G23   30.05F
WADENA         FAIR      57  36  44 SW12G20   30.06F
DETROIT LAKES  FAIR      57  36  44 SW13G25   30.03F
MOORHEAD       FAIR      57  39  51 S12G17    30.00F
FERGUS FALLS   FAIR      59  39  47 S13       30.06F
ELBOW LAKE     FAIR      58  38  48 S14       30.06F
MORRIS MN      FAIR      61  39  44 SW15      30.07F
STAPLES        FAIR      57  32  38 SW12      30.08F
WHEATON        FAIR      63  32  31 S18G24    30.06F
$$
  *****  WEATHER ELSEWHERE ACROSS MINNESOTA  *****

CITY           SKY/WX    TMP DP  RH WIND       PRES   REMARKS
DULUTH         FAIR      53  37  54 W13G24    30.09F
INTRNTL FALLS  FAIR      53  34  48 SW9       29.99F
ELY            FAIR      50  30  46 SW9G16    30.05F
CLOQUET        FAIR      55  34  44 SW13      30.10F
BRAINERD       FAIR      54  35  48 SW15      30.11F
HIBBING        FAIR      51  32  48 SW12G21   30.07F
ALEXANDRIA     FAIR      57  36  45 S16       30.11F
SAINT CLOUD    FAIR      57  36  45 SW10      30.16F
MINNEAPOLIS    FAIR      54  37  52 SW9       30.21F
$$

  *****  WEATHER ACROSS SOUTH DAKOTA  *****

CITY           SKY/WX    TMP DP  RH WIND       PRES   REMARKS
SIOUX FALLS    FAIR      62  39  42 S18       30.17F
BROOKINGS      FAIR      61  37  41 S20G25    30.13F
WATERTOWN      FAIR      60  37  42 S13G22    30.08F
HURON          FAIR      58  38  47 S15       30.08F
SISSETON         N/A     63  37  38 SW26G36   30.02F
ABERDEEN       FAIR      57  38  48 SW12      30.06F
MITCHELL       FAIR      64  36  35 S12       30.11F
PIERRE         FAIR      52  35  52 SW7       30.07F
MOBRIDGE       FAIR      58  37  45 S10       30.01F
RAPID CITY     FAIR      66  28  24 VRB3      30.12F
$$

  *****  SOME WEATHER IN NEARBY STATES *****

CITY           SKY/WX    TMP DP  RH WIND       PRES   REMARKS
GLASGOW MT     FAIR      60  33  36 W17G29    29.99F
GREAT FALLS MT FAIR      60  18  19 SW26G38   30.14S
CHEYENNE WY    FAIR      62   8  12 W21G26    30.31F
SCOTTSBLUFF NE FAIR      58  30  34 NW3       30.21F
OMAHA NE       FAIR      64  40  41 S13       30.29F
DES MOINES IA  FAIR      63  37  38 SW12      30.32F
DAVENPORT IA   FAIR      59  36  42 W8        30.34F
CHICAGO IL     FAIR      58  39  49 SW9       30.30F
EAU CLAIRE WI  FAIR      55  37  50 SW13      30.21F
LA CROSSE WI   FAIR      55  41  59 S8        30.26S
$$

  *****  SOME NATIONAL WEATHER *****

CITY           SKY/WX    TMP DP  RH WIND       PRES   REMARKS
LA GUARDIA NY  CLOUDY    58  43  57 NW18      29.99F
RALEIGH NC     CLOUDY    57  56  96 N7        30.10S
ATLANTA GA     PTSUNNY   65  49  56 N18       30.13F
NEW ORLEANS LA PTSUNNY   68  60  75 N17G24    30.15F
OKLAHOMA CITY  FAIR      63  32  31 CALM      30.45S
ALBUQUERQUE NM FAIR      55  24  30 CALM      30.51F
SALT LAKE CITY PTSUNNY   50  26  39 CALM      30.44S
LOS ANGELES CA FAIR      84  22  10 NE3       30.07S
BOISE ID         N/A     49  28  44 SE5       30.40S
SEATTLE WA     FAIR      49  47  93 S8        30.24S
$$

*** WEATHER ACROSS MANITOBA...SASKATCHEWAN AND ONTARIO ***
                ***ONTARIO***

CITY           SKY/WX    TMP DP  RH WIND       PRES   REMARKS
GERALDTON      PTSUNNY   46  34  61 SW10G17   29.99S
THUNDER BAY    CLOUDY    52  36  54 W6        30.05S
SIOUX LOOKOUT  PTSUNNY   46  37  71 SW7       29.93F
TORONTO        PTSUNNY   46  32  57 NW15      30.22F
BIG TROUT LK   PTSUNNY   39  34  81 SW13G18   29.79F
PICKLE LAKE    LGT RAIN  41  34  75 SW7       29.90F
DRYDEN         PTSUNNY   46  36  66 SW12G17   29.92F
KENORA         PTSUNNY   52  36  54 S15G24    29.87F
$$
                *** MANITOBA***

CITY           SKY/WX    TMP DP  RH WIND       PRES   REMARKS
BRANDON        MOSUNNY   52  34  50 W18       29.80F
DAUPHIN        SUNNY     57  36  44 W20G25    29.72S
ISLAND LAKE    LGT RAIN  41  37  87 S13G20    29.62
PILOT MOUND      N/A     54  34  47 W12G20      N/A
THE PAS        MOSUNNY   55  34  44 W20G26    29.55S
THOMPSON       LGT RAIN  41  39  93 S8        29.40F
WINNIPEG       MOSUNNY   52  34  50 SW14      29.78F
LYNN LAKE      CLOUDY    41  41 100 W12G17    29.34F
CHURCHILL      FLURRIES  30  30 100 SE5       29.61F
GILLAM         SNOW      32  32 100 SE9       29.53F VSB 1/2 WCI  24
$$
                ***SASKATCHEWAN***

CITY           SKY/WX    TMP DP  RH WIND       PRES   REMARKS
ESTEVAN        MOSUNNY   57  34  41 W16G22    29.88S
KINDERSLEY     MOSUNNY   50  30  46 VRB2      29.90S
LLOYDMINSTER   CLOUDY    50  34  53 W7        29.82R
PRINCE ALBERT  PTSUNNY   55  34  44 W20G29    29.76R
REGINA         PTSUNNY   52  34  50 NW7       29.89R
YORKTON        SUNNY     59  34  38 NW16      29.79R



USA.gov is the U.S. government's official web portal to all federal, state and local government web resources and services.